Location: Hastringsfeld
(50.9620°N, 10.4787°E)
Time: 11:44:31
(UTC+00:00)

NOSS 2-3 (C) - Pass Details

Date: 26 September 2023
Orbit: 503 x 1698 km, 63.3° (Epoch: 06 December)

Event Time Altitude Azimuth Distance (km) Brightness Sun altitude
Exits shadow 02:20:34 31° 307° (NW) 1,570 5.4 -26.0°
Maximum altitude 02:23:41 73° 229° (SW) 1,069 4.4 -25.6°
Drops below altitude 10° 02:31:27 10° 147° (SSE) 3,291 7.2 -24.6°
Sets 02:34:42 0° 146° (SE) 4,436 8.0 -24.1°
